Location: Presov
(49.0000°N, 21.2500°E)
Time: 07:18:11
(UTC+02:00)

Transit 2A Rocket - Pass Details

Date: 16 April 2021
Orbit: 594 x 909 km, 66.7° (Epoch: 07 May)

Event Time Altitude Azimuth Distance (km) Brightness Sun altitude
Rises 17:19:36 0° 221° (SW) 2,949 8.8 20.1°
Reaches altitude 10° 17:21:57 10° 224° (SW) 2,007 8.1 19.7°
Maximum altitude 17:26:24 68° 307° (NW) 660 5.3 19.0°
Drops below altitude 10° 17:30:43 10° 32° (NNE) 1,940 6.8 18.3°
Sets 17:32:58 0° 35° (NE) 2,843 7.6 17.9°
